COSMOS 397 DEB *, 5527

Orbit data source: Space-Track

COSMOS 397 DEB *, 5527 is space debris in LEO originally from a launch on Thu, 25 Feb 1971 UTC launched from the Tyuratam Missile And Space Complex (TTMTR). Debris objects in space refer to the collection of defunct objects orbiting the Earth. Examples of debris include non-operational satellites, rocket bodies, and fragments generated from explosions, collisions, or faulty payload assembly.

Loading next visibility...
Identifier
5527, 1971-015BR
Orbit
LEO
Country
Flag of CISCIS
Related business
Manufacturer
Unknown
Mission
Spacecraft
Bus & Motor
Unknown
Mass
Unknown
Launch date (UTC)
1971-02-25 (55 years ago)
Launch vehicle
Unknown
Launch site
Tyuratam Missile And Space Complex (TTMTR)
Object type
Payload
Rocket body
Debris
Shape & HBR
Unknown shape, 0.1 m
Radar Cross Section
Small (<0.1 m²)

Expand to show TLE details & history
Last TLE update: 22 hours ago

TLE from 22 hours ago
0 COSMOS 397 DEB *
1 05527U 71015BR  25349.82404387  .00002274  00000-0  11926-2 0  9998
2 05527  66.8738  21.6282 0064732 100.3357 260.5041 14.14910299764488
Epoch: 2025-12-15T19:46Z
TLE epoch observation values (Epoch: 2025-12-15T19:46:37.390Z)
Latitude
0.00003°
Longitude
0.25535°
Altitude
852.729 km
Speed
7.423 km/s
True Right ascension
01h 26m 30s
True Declination
0° 00' 00"
Sunlit
Object was in daylight at epoch
Visualization orbit readout
Latitude
Unknown
Longitude
Unknown
Altitude
Unknown
Speed
Unknown
Apparent Right ascension
Unknown
Apparent Declination
Unknown
Sunlit
N/A
Visualization observer readout
Local Sidereal Time
16:53:05
Azimuth
Unknown
Elevation
Unknown
Doppler factor
Unknown
Orbital elements
Apogee altitude
887.714 km
Perigee altitude
794.253 km
Semi-major axis
7,219.121 km
Eccentricity
0.00647
Inclination
66.8738°
RAAN
21.6282°
Arg. of periapsis
100.3357°
True anomaly
259.77349°
Mean anomaly
260.5041°
Eccentric anomaly
260.13869°
Mean motion
3.53848 °/min
Orbital period
101.74 mins
BSTAR
0.0011926
Loading maneuver chart data...
Computing Atmospheric mass density...
Loading historical data...
Loading historical data...
Loading historical data...
Loading historical data...
Loading historical data...
Loading historical data...
Loading historical data...

Documentation

Showing up to 5 results
|